Location: Unspecified
(0.0000°N, 0.0000°E)
Time: 12:22:22
(UTC+02:00)

Atlas Centaur 2 - Visible Passes

Search period start: 28 July 2015 00:00
Search period end: 07 August 2015 00:00
Orbit: 460 x 1320 km, 30.4° (Epoch: 27 July)

Date Brightness Start Highest point End Pass type
(mag) Time Alt. Az. Time Alt. Az. Time Alt. Az.
28 Jul 3.8 05:08:06 49° E 05:08:06 49° E 05:13:53 10° ENE visible
28 Jul 3.7 06:50:49 22° W 06:55:43 40° NNW 07:02:48 10° NE visible
29 Jul 3.8 05:06:04 48° ENE 05:06:04 48° ENE 05:11:42 10° ENE visible
29 Jul 4.1 06:48:46 20° WNW 06:53:28 32° NNW 07:00:12 10° NNE visible
30 Jul 3.9 05:03:59 45° NE 05:03:59 45° NE 05:09:22 10° NE visible
30 Jul 4.3 06:46:41 17° WNW 06:51:14 25° NNW 06:57:29 10° NNE visible
31 Jul 4.1 05:01:51 39° NNE 05:01:51 39° NNE 05:06:57 10° NE visible
31 Jul 4.6 06:44:34 14° WNW 06:49:05 20° NNW 06:54:39 10° NNE visible
01 Aug 4.3 04:59:41 33° NNE 04:59:41 33° NNE 05:04:25 10° NE visible
01 Aug 4.8 06:42:23 11° WNW 06:47:01 16° NNW 06:51:39 10° N visible
02 Aug 4.5 04:57:28 28° NNE 04:57:28 28° NNE 05:01:46 10° NE visible
02 Aug 5.0 06:41:11 10° NW 06:45:00 13° NNW 06:48:23 10° N visible
03 Aug 4.7 04:55:13 23° N 04:55:13 23° N 04:59:01 10° NNE visible
03 Aug 5.2 06:41:33 10° NNW 06:43:03 10° NNW 06:44:10 10° NNW visible
04 Aug 4.9 04:52:56 19° N 04:52:56 19° N 04:56:10 10° NNE visible
05 Aug 5.1 04:50:38 16° N 04:50:38 16° N 04:53:09 10° NNE visible
06 Aug 5.2 04:48:18 13° N 04:48:18 13° N 04:49:56 10° N visible
